Change the Weather History Date:

Wednesday, October 15, 2014

  Actual Average Record
Temperature  
Mean Temperature 80 °F -  
Max Temperature 86 °F 88 °F 96 °F (2000)
Min Temperature 73 °F 76 °F 69 °F (1997)
Cooling Degree Days 14    
Growing Degree Days 30 (Base 50)    
Moisture  
Dew Point 73 °F    
Average Humidity 77    
Maximum Humidity 89    
Minimum Humidity 66    
Precipitation  
Precipitation 0.00 in 0.35 in - ()
Sea Level Pressure  
Sea Level Pressure 29.84 in    
Wind  
Wind Speed 5 mph ()    
Max Wind Speed 10 mph    
Max Gust Speed -    
Visibility 5.8 miles    
Events      
Averages and records for this station are not official NWS values.
T = Trace of Precipitation, MM = Missing Value Source: Averaged Metar Reports

Daily Weather History Graph

Daily Weather History Graph

Search for Another Location

Airport or City:

Trip Planner

Search our weather history database for the weather conditions in past years. The results will help you decide how hot, cold, wet, or windy it might be!

Date:

Astronomy

Oct. 15, 2014 Rise Set
Actual Time 6:14 AM ICT 6:10 PM ICT
Civil Twilight 5:52 AM ICT 6:32 PM ICT
Nautical Twilight 5:28 AM ICT 6:56 PM ICT
Astronomical Twilight 5:04 AM ICT 7:20 PM ICT
Moon No Moon Rise 12:05 PM ICT (10/15)
Length of Visible Light 12h 39m
Length of Day
11h 56m
Waning Gibbous, 56% of the Moon is Illuminated
Oct 15
Waning Gibbous
Oct 16
Last Quarter
Oct 24
New
Oct 31
First Quarter
Nov 7
Full

Hourly Weather History & Observations

Time (ICT) Temp. Heat Index Dew Point Humidity Pressure Visibility Wind Dir Wind Speed Gust Speed Precip Events Conditions
12:00 AM 77.0 °F - 73.4 °F 89% 29.86 in 5.0 mi ENE 4.6 mph - N/A   Mostly Cloudy
12:30 AM 78.8 °F - 71.6 °F 78% 29.86 in 5.0 mi ENE 5.8 mph - N/A   Mostly Cloudy
1:00 AM 78 °F - 75 °F 88% 29.85 in 5 mi Calm Calm - -   Mist
1:00 AM 77.0 °F - 73.4 °F 89% 29.86 in 5.0 mi ENE 4.6 mph - N/A   Mostly Cloudy
1:30 AM 78.8 °F - 71.6 °F 78% 29.83 in 5.0 mi ENE 6.9 mph - N/A   Mostly Cloudy
2:00 AM 78.8 °F - 71.6 °F 78% 29.83 in 5.0 mi ENE 5.8 mph - N/A   Mostly Cloudy
2:30 AM 77.0 °F - 71.6 °F 83% 29.83 in 5.0 mi ENE 3.5 mph - N/A   Mostly Cloudy
3:00 AM 77.0 °F - 71.6 °F 83% 29.83 in 5.0 mi ENE 5.8 mph - N/A   Mostly Cloudy
3:30 AM 77.0 °F - 71.6 °F 83% 29.83 in 5.0 mi ENE 4.6 mph - N/A   Mostly Cloudy
4:00 AM 77 °F - 73 °F 85% 29.84 in 6 mi Calm Calm - -   Mist
4:00 AM 77.0 °F - 71.6 °F 83% 29.83 in 5.0 mi ENE 5.8 mph - N/A   Mostly Cloudy
6:00 AM 77.0 °F - 71.6 °F 83% 29.86 in 5.0 mi ENE 5.8 mph - N/A   Mostly Cloudy
6:30 AM 77.0 °F - 71.6 °F 83% 29.86 in 5.0 mi ENE 5.8 mph - N/A   Mostly Cloudy
7:00 AM 77 °F - 74 °F 87% 29.83 in 6 mi Calm Calm - -   Mist
7:00 AM 77.0 °F - 71.6 °F 83% 29.86 in 5.0 mi ENE 3.5 mph - N/A   Mostly Cloudy
7:30 AM 78.8 °F - 73.4 °F 83% 29.86 in 5.0 mi ENE 4.6 mph - N/A   Mostly Cloudy
8:00 AM 80.6 °F 85.4 °F 73.4 °F 79% 29.89 in 5.0 mi ENE 5.8 mph - N/A   Mostly Cloudy
8:30 AM 80.6 °F 85.4 °F 73.4 °F 79% 29.89 in 6.2 mi NNE 3.5 mph - N/A   Mostly Cloudy
9:00 AM 82.4 °F 88.2 °F 73.4 °F 74% 29.89 in 6.2 mi ENE 3.5 mph - N/A   Mostly Cloudy
9:30 AM 82.4 °F 88.2 °F 73.4 °F 74% 29.92 in 6.2 mi ENE 4.6 mph - N/A   Mostly Cloudy
10:00 AM 82 °F - 76 °F 77% 29.89 in 6 mi Calm Calm - -   Scattered Clouds
10:00 AM 82.4 °F 88.2 °F 73.4 °F 74% 29.92 in 6.2 mi NE 3.5 mph - N/A   Mostly Cloudy
10:30 AM 82.4 °F 88.2 °F 73.4 °F 74% 29.92 in 5.6 mi NE 4.6 mph - N/A   Mostly Cloudy
11:00 AM 82.4 °F 88.2 °F 73.4 °F 74% 29.89 in 5.6 mi NNE 5.8 mph - N/A   Mostly Cloudy
11:30 AM 82.4 °F 88.2 °F 73.4 °F 74% 29.89 in 5.6 mi NE 5.8 mph - N/A   Mostly Cloudy
12:00 PM 84.2 °F 90.9 °F 73.4 °F 70% 29.86 in 5.6 mi NNE 5.8 mph - N/A   Mostly Cloudy
12:30 PM 84.2 °F 90.9 °F 73.4 °F 70% 29.86 in 6.2 mi ENE 5.8 mph - N/A   Mostly Cloudy
1:00 PM 85 °F - 75 °F 66% 29.84 in 6 mi ESE 10.4 mph - -   Scattered Clouds
1:00 PM 86.0 °F 95.1 °F 75.2 °F 70% 29.83 in 6.2 mi ENE 6.9 mph - N/A   Mostly Cloudy
1:30 PM 86.0 °F 93.4 °F 73.4 °F 66% 29.83 in 6.2 mi East 10.4 mph - N/A   Mostly Cloudy
2:00 PM 84.2 °F 90.9 °F 73.4 °F 70% 29.83 in 6.2 mi East 9.2 mph - N/A   Mostly Cloudy
2:30 PM 84.2 °F 90.9 °F 73.4 °F 70% 29.83 in 6.2 mi ENE 9.2 mph - N/A   Mostly Cloudy
3:00 PM 84.2 °F 90.9 °F 73.4 °F 70% 29.80 in 6.2 mi ENE 9.2 mph - N/A   Mostly Cloudy
3:30 PM 84.2 °F 90.9 °F 73.4 °F 70% 29.80 in 6.2 mi ENE 8.1 mph - N/A   Mostly Cloudy
4:00 PM 84 °F - 75 °F 67% 29.78 in 6 mi East 10.4 mph - -   Scattered Clouds
4:00 PM 84.2 °F 90.9 °F 73.4 °F 70% 29.80 in 6.2 mi ENE 6.9 mph - N/A   Mostly Cloudy
4:30 PM 82.4 °F 88.2 °F 73.4 °F 74% 29.80 in 6.2 mi East 10.4 mph - N/A   Mostly Cloudy
5:00 PM 82.4 °F 88.2 °F 73.4 °F 74% 29.80 in 6.2 mi ENE 6.9 mph - N/A   Mostly Cloudy
5:30 PM 80.6 °F 85.4 °F 73.4 °F 79% 29.80 in 6.2 mi ENE 6.9 mph - N/A   Mostly Cloudy
6:00 PM 80.6 °F 85.4 °F 73.4 °F 79% 29.80 in 6.2 mi ENE 8.1 mph - N/A   Mostly Cloudy
6:30 PM 80.6 °F 85.4 °F 73.4 °F 79% 29.80 in 6.2 mi ENE 6.9 mph - N/A   Mostly Cloudy
7:00 PM 81 °F - 75 °F 77% 29.79 in 6 mi East 5.8 mph - -   Scattered Clouds
7:00 PM 80.6 °F 85.4 °F 73.4 °F 79% 29.80 in 6.2 mi East 8.1 mph - N/A   Mostly Cloudy
7:30 PM 80.6 °F 85.4 °F 73.4 °F 79% 29.83 in 6.2 mi ENE 9.2 mph - N/A   Mostly Cloudy
8:00 PM 78.8 °F - 73.4 °F 83% 29.83 in 6.2 mi ENE 9.2 mph - N/A   Mostly Cloudy
8:30 PM 78.8 °F - 73.4 °F 83% 29.83 in 6.2 mi ENE 6.9 mph - N/A   Mostly Cloudy
9:00 PM 80.6 °F 85.4 °F 73.4 °F 79% 29.86 in 6.2 mi East 9.2 mph - N/A   Mostly Cloudy
9:30 PM 80.6 °F 84.6 °F 71.6 °F 74% 29.86 in 6.2 mi East 10.4 mph - N/A   Mostly Cloudy
10:00 PM 81 °F - 74 °F 75% 29.83 in 6 mi Calm Calm - -   Scattered Clouds
10:00 PM 80.6 °F 85.4 °F 73.4 °F 79% 29.86 in 6.2 mi East 9.2 mph - N/A   Mostly Cloudy
10:30 PM 80.6 °F 84.6 °F 71.6 °F 74% 29.86 in 6.2 mi Variable 3.5 mph - N/A   Mostly Cloudy
11:00 PM 78.8 °F - 73.4 °F 83% 29.86 in 6.2 mi East 2.3 mph - N/A   Mostly Cloudy
11:30 PM 78.8 °F - 73.4 °F 83% 29.89 in 5.6 mi East 4.6 mph - N/A   Mostly Cloudy